Time+07,TemperatureF,Dew PointF,Humidity,Sea Level PressureIn,VisibilityMPH,Wind Direction,Wind SpeedMPH,Gust SpeedMPH,PrecipitationIn,Events,Conditions,WindDirDegrees,DateUTC
12:00 AM,78.8,73.4,83,29.89,4.3,WSW,8.1,-,N/A,,Mostly Cloudy,240,2012-09-27 17:00:00
12:30 AM,78.8,73.4,83,29.89,3.7,WSW,8.1,19.6,N/A,,Mostly Cloudy,240,2012-09-27 17:30:00
1:00 AM,79,75,83,29.85,4,WSW,10.4,,,Rain,Light Rain,240,2012-09-27 18:00:00
1:00 AM,78.8,71.6,78,29.89,4.3,Variable,5.8,-,N/A,,Mostly Cloudy,0,2012-09-27 18:00:00
1:30 AM,78.8,71.6,78,29.86,4.3,WSW,6.9,-,N/A,,Mostly Cloudy,240,2012-09-27 18:30:00
2:00 AM,78.8,71.6,78,29.86,4.3,WSW,11.5,-,N/A,,Mostly Cloudy,250,2012-09-27 19:00:00
2:30 AM,78.8,71.6,78,29.83,5.0,WSW,5.8,-,N/A,,Mostly Cloudy,240,2012-09-27 19:30:00
3:00 AM,78.8,71.6,78,29.83,5.0,WSW,5.8,-,N/A,,Mostly Cloudy,250,2012-09-27 20:00:00
3:30 AM,78.8,73.4,83,29.83,5.0,Variable,6.9,-,N/A,,Mostly Cloudy,0,2012-09-27 20:30:00
4:00 AM,78.8,73.4,83,29.83,5.0,Variable,3.5,-,N/A,,Mostly Cloudy,0,2012-09-27 21:00:00
4:30 AM,78.8,73.4,83,29.83,5.0,WSW,4.6,-,N/A,,Mostly Cloudy,240,2012-09-27 21:30:00
5:30 AM,78.8,73.4,83,29.83,5.0,WSW,6.9,-,N/A,,Mostly Cloudy,250,2012-09-27 22:30:00
6:00 AM,78.8,73.4,83,29.83,4.3,Variable,4.6,-,N/A,,Mostly Cloudy,0,2012-09-27 23:00:00
6:30 AM,78.8,73.4,83,29.83,4.3,Variable,3.5,-,N/A,,Mostly Cloudy,0,2012-09-27 23:30:00
7:00 AM,80,75,81,29.81,5,Calm,Calm,,,,Mist,,2012-09-28 00:00:00
7:00 AM,78.8,73.4,83,29.86,4.3,Variable,5.8,-,N/A,,Mostly Cloudy,0,2012-09-28 00:00:00
7:30 AM,78.8,73.4,83,29.86,4.3,Variable,5.8,-,N/A,,Mostly Cloudy,0,2012-09-28 00:30:00
8:00 AM,80.6,73.4,79,29.89,4.3,WSW,4.6,-,N/A,,Mostly Cloudy,250,2012-09-28 01:00:00
8:30 AM,82.4,75.2,79,29.89,4.3,WSW,6.9,-,N/A,,Mostly Cloudy,250,2012-09-28 01:30:00
9:00 AM,82.4,75.2,79,29.89,5.0,WSW,8.1,-,N/A,,Mostly Cloudy,250,2012-09-28 02:00:00
9:30 AM,80.6,75.2,84,29.92,5.0,WSW,9.2,-,N/A,,Mostly Cloudy,250,2012-09-28 02:30:00
10:00 AM,82.4,75.2,79,29.92,5.0,Variable,5.8,-,N/A,,Mostly Cloudy,0,2012-09-28 03:00:00
10:30 AM,82.4,75.2,79,29.89,5.6,WSW,8.1,-,N/A,,Mostly Cloudy,250,2012-09-28 03:30:00
11:00 AM,82.4,75.2,79,29.89,5.0,WSW,10.4,-,N/A,,Mostly Cloudy,250,2012-09-28 04:00:00
11:30 AM,80.6,77.0,89,29.89,1.2,Variable,5.8,-,N/A,Rain,Rain,0,2012-09-28 04:30:00
12:00 PM,77.0,73.4,89,29.89,0.6,West,13.8,27.6,N/A,Rain,Heavy Rain,280,2012-09-28 05:00:00
12:30 PM,77.0,73.4,89,29.89,4.3,WNW,6.9,-,N/A,Rain,Rain,300,2012-09-28 05:30:00
1:00 PM,79,78,94,29.82,3,West,5.8,,,Rain,Light Rain,270,2012-09-28 06:00:00
1:00 PM,77.0,75.2,94,29.86,3.7,NW,4.6,-,N/A,Rain,Rain,310,2012-09-28 06:00:00
1:30 PM,78.8,75.2,89,29.83,4.3,WNW,4.6,-,N/A,Rain,Light Rain,290,2012-09-28 06:30:00
2:00 PM,80.6,75.2,84,29.83,4.3,WSW,9.2,-,N/A,,Mostly Cloudy,250,2012-09-28 07:00:00
2:30 PM,80.6,75.2,84,29.83,5.0,NW,6.9,-,N/A,,Mostly Cloudy,310,2012-09-28 07:30:00
3:00 PM,82.4,75.2,79,29.80,5.0,NW,5.8,-,N/A,,Mostly Cloudy,310,2012-09-28 08:00:00
3:30 PM,82.4,75.2,79,29.80,5.0,WNW,8.1,-,N/A,,Mostly Cloudy,290,2012-09-28 08:30:00
4:00 PM,82.4,75.2,79,29.80,5.0,West,8.1,-,N/A,,Mostly Cloudy,280,2012-09-28 09:00:00
4:30 PM,82.4,75.2,79,29.80,5.0,West,6.9,-,N/A,,Mostly Cloudy,280,2012-09-28 09:30:00
5:00 PM,80.6,75.2,84,29.80,5.0,Variable,5.8,-,N/A,,Mostly Cloudy,0,2012-09-28 10:00:00
5:30 PM,80.6,75.2,84,29.80,5.6,Variable,3.5,-,N/A,,Mostly Cloudy,0,2012-09-28 10:30:00
6:00 PM,80.6,75.2,84,29.80,5.6,Variable,1.2,-,N/A,,Mostly Cloudy,0,2012-09-28 11:00:00
6:30 PM,78.8,75.2,89,29.80,5.0,Calm,Calm,-,N/A,,Mostly Cloudy,0,2012-09-28 11:30:00
7:00 PM,81,76,80,29.79,6,Calm,Calm,,,,Partly Cloudy,,2012-09-28 12:00:00
7:00 PM,78.8,75.2,89,29.83,5.0,Variable,2.3,-,N/A,,Mostly Cloudy,0,2012-09-28 12:00:00
7:30 PM,78.8,75.2,89,29.83,5.0,Calm,Calm,-,N/A,,Mostly Cloudy,0,2012-09-28 12:30:00
8:00 PM,78.8,75.2,89,29.86,5.0,Variable,2.3,-,N/A,,Mostly Cloudy,0,2012-09-28 13:00:00
8:30 PM,77.0,75.2,94,29.86,5.0,Calm,Calm,-,N/A,,Mostly Cloudy,0,2012-09-28 13:30:00
9:00 PM,77.0,75.2,94,29.89,5.0,WNW,6.9,-,N/A,,Mostly Cloudy,300,2012-09-28 14:00:00
9:30 PM,80.6,75.2,84,29.89,5.0,NNW,6.9,-,N/A,,Mostly Cloudy,330,2012-09-28 14:30:00
10:00 PM,80.6,75.2,84,29.92,5.0,NW,8.1,-,N/A,,Mostly Cloudy,320,2012-09-28 15:00:00
10:30 PM,78.8,75.2,89,29.92,5.0,WNW,5.8,-,N/A,,Mostly Cloudy,290,2012-09-28 15:30:00
11:00 PM,78.8,75.2,89,29.92,5.0,WNW,8.1,-,N/A,,Mostly Cloudy,300,2012-09-28 16:00:00
11:30 PM,78.8,75.2,89,29.92,5.0,NW,5.8,-,N/A,,Mostly Cloudy,310,2012-09-28 16:30:00